Wind_Speed
7 6 4 4 5 4 3 2 3 5 5 5 7 9 9 10 9 8 7 7 7 7 6 7 6 6 6 6 6 6 6 6 7 7 6 6 7 7 7 7 7 7 7 7
7 6 5 6 5 5 4 4 4 5 5 6 7 8 9 11 10 8 8 7 7 7 6 6 6 6 5 5 5 6 6 6 7 7 7 6 7 7 7 7 7 8 8 8
9 8 8 9 7 7 8 6 6 7 5 7 9 8 9 11 11 9 8 8 7 6 6 5 6 6 6 5 5 5 6 6 6 7 7 7 7 8 8 8 7 7 8 8
12 11 11 11 10 9 9 8 7 7 6 8 9 10 10 11 12 10 9 8 7 6 5 5 5 6 6 6 6 6 6 6 6 6 6 7 7 8 8 9 8 8 8 8
14 13 13 13 12 11 11 9 8 9 9 6 7 9 11 9 10 11 9 8 7 6 5 5 6 6 6 6 7 7 7 7 6 7 7 7 8 8 8 8 8 8 9 9
16 15 15 14 14 12 11 10 10 9 9 8 7 8 11 11 11 11 10 7 6 6 6 7 7 7 7 7 8 8 7 7 7 7 7 8 8 9 9 9 9 9 10 10
16 16 15 15 14 14 13 12 12 11 10 9 9 10 11 12 11 12 12 9 7 6 6 7 7 8 8 7 8 9 9 8 8 8 8 9 9 10 11 11 10 11 11 11
15 16 16 16 16 15 15 14 14 13 10 9 8 10 11 13 12 12 13 12 10 8 8 7 7 8 8 8 8 8 9 9 9 9 9 9 10 10 11 11 11 12 12 12
16 17 17 17 17 16 16 15 14 15 15 12 10 11 12 14 14 14 13 13 12 9 9 10 9 9 9 9 9 9 9 10 10 10 10 10 10 11 11 12 12 12 13 13
18 18 16 17 17 17 17 15 15 16 16 14 10 11 13 14 15 14 13 13 13 10 10 11 10 10 9 9 10 10 10 11 11 11 11 11 12 12 12 13 13 13 13 14
20 19 16 17 18 17 17 17 17 16 15 13 12 11 12 15 15 16 16 14 13 11 10 11 11 11 11 11 11 11 11 12 12 12 12 12 13 13 14 14 14 15 15 15
22 21 20 18 17 18 18 18 17 17 16 16 14 13 13 15 17 17 16 14 13 12 12 12 12 12 12 12 12 13 13 13 14 14 14 14 14 14 15 16 16 16 16 16
23 23 21 18 17 18 19 19 18 17 16 17 16 16 17 16 17 18 17 15 14 15 15 16 16 15 14 14 14 14 14 14 14 15 16 16 16 16 17 17 17 17 17 18
25 26 24 21 18 18 19 18 19 18 19 19 20 20 19 19 20 20 18 18 17 17 18 18 18 17 16 16 16 16 16 15 16 16 17 17 18 18 18 18 18 18 18 19
26 27 27 24 21 21 21 20 19 20 21 22 22 21 18 19 21 21 21 20 20 19 20 20 19 19 18 18 18 18 17 17 17 17 18 18 18 19 19 19 20 20 20 20
27 28 27 27 24 22 22 22 20 20 20 22 23 22 20 21 22 22 22 22 22 22 22 22 22 22 21 20 20 20 20 20 20 20 20 20 20 20 21 21 22 22 22 22
28 28 29 28 26 24 26 24 22 22 22 22 24 23 23 25 24 24 24 23 23 23 24 23 23 23 23 23 22 22 22 22 22 22 22 22 22 23 23 24 24 24 24 24
28 29 29 28 26 27 25 24 24 24 23 23 24 24 25 26 25 25 26 25 24 25 25 25 25 25 25 25 24 25 25 24 23 24 24 24 25 25 25 26 26 26 26 25
28 29 30 28 27 26 25 25 25 25 24 25 26 27 27 27 26 26 26 26 25 26 26 26 26 26 27 27 26 26 25 25 25 25 25 26 26 26 26 27 27 27 27 27
31 31 31 30 28 27 26 27 26 26 28 28 28 29 29 28 28 28 26 27 27 27 27 27 27 28 28 28 27 27 27 27 26 26 26 27 27 27 27 27 27 27 27 27
31 32 33 32 31 29 28 28 27 28 30 29 30 30 30 30 30 29 29 29 28 28 28 29 29 29 29 29 29 29 29 29 28 28 29 28 29 29 29 29 28 28 28 28
29 31 32 32 31 31 31 30 30 31 32 31 31 31 31 30 30 30 30 29 29 29 30 30 31 31 31 30 30 30 30 30 30 30 30 30 30 31 31 30 30 29 28 28
30 31 31 32 32 33 32 33 33 34 34 33 33 33 33 32 31 31 30 30 30 30 30 30 31 31 31 32 31 31 31 30 30 31 31 31 31 31 31 31 30 30 29 30
31 32 33 32 33 34 33 34 34 33 33 33 34 34 34 33 32 31 31 31 31 31 31 31 31 31 32 32 33 32 32 32 31 32 32 32 32 33 32 32 31 32 32 31
32 32 33 34 34 36 36 35 34 33 33 33 34 35 35 34 33 32 32 32 32 32 32 31 31 31 32 32 32 33 33 32 32 32 32 32 33 33 34 34 33 33 32 32
34 32 32 33 33 35 35 35 35 35 34 34 35 35 35 34 33 32 33 33 32 32 32 31 31 32 32 32 32 32 32 32 32 32 32 33 34 34 35 34 34 34 34 33
Wind_Direction
192 200 207 214 220 227 247 265 283 306 317 328 341 338 340 333 340 346 351 355 357 6 9 18 17 17 17 16 16 13 10 9 6 4 3 1 0 2 6 10 10 7 4 0
205 212 225 229 234 242 254 269 282 293 312 319 318 320 329 332 327 335 340 341 344 351 359 6 11 9 9 5 3 5 2 2 0 359 357 355 357 359 358 359 4 3 2 356
221 217 224 233 237 247 249 258 265 269 300 308 304 310 319 329 327 331 336 337 340 343 347 353 3 1 359 1 356 355 357 355 353 351 350 351 354 354 353 351 354 351 351 350
228 225 229 239 241 243 250 256 263 276 282 287 301 304 313 319 324 330 334 334 334 337 335 342 352 353 353 356 356 353 350 349 347 344 344 344 343 341 339 342 346 345 343 340
232 229 227 237 241 243 247 247 251 261 267 276 290 295 303 310 314 320 325 329 324 326 322 328 336 335 339 343 347 346 345 344 342 341 340 338 335 334 334 336 339 338 336 335
234 233 233 237 237 240 245 248 252 255 262 264 267 278 289 296 299 304 313 314 316 319 311 315 324 326 326 332 338 339 336 335 334 335 334 333 333 334 331 327 329 330 331 330
241 238 235 239 243 241 241 250 259 262 261 267 274 269 272 282 290 295 300 297 310 313 310 312 315 318 318 325 334 339 339 336 332 328 328 327 328 329 328 327 328 330 328 326
243 243 241 237 238 240 241 245 251 262 263 259 261 264 274 279 287 290 288 289 292 299 301 309 321 321 323 324 326 330 333 333 330 327 324 323 321 322 325 327 325 325 325 325
235 244 246 243 238 234 237 245 252 259 260 260 259 262 269 281 286 286 288 288 287 294 302 305 313 317 318 319 320 324 327 327 328 327 325 325 323 320 322 323 323 322 323 325
229 236 238 247 244 240 237 239 250 257 264 262 259 258 262 272 274 279 281 285 286 294 295 296 299 310 311 313 316 317 321 323 323 325 324 323 322 321 320 321 322 321 321 321
231 232 235 237 243 244 244 237 238 246 248 261 264 261 262 271 276 275 275 274 283 282 287 292 299 302 304 307 312 314 316 317 317 318 317 316 317 318 318 318 317 317 317 317
236 234 235 234 239 242 242 243 239 243 248 250 257 265 266 270 278 275 276 275 274 280 283 285 290 296 298 300 305 309 311 311 311 311 310 311 311 311 312 312 314 314 314 316
234 233 235 236 236 243 246 244 241 242 251 256 257 262 267 271 277 276 275 274 272 272 276 281 284 286 290 293 297 302 304 306 306 306 306 306 306 306 308 309 309 310 310 310
233 232 232 232 230 237 246 247 240 238 246 256 259 263 264 268 272 273 272 271 271 273 276 279 282 284 287 290 293 296 298 300 301 302 303 303 302 303 304 305 307 307 309 308
234 234 237 236 231 236 239 247 246 244 244 250 258 262 264 266 268 268 269 270 272 273 273 276 277 280 284 286 288 292 294 297 299 299 300 300 299 299 300 302 304 305 306 307
235 234 236 238 232 234 240 241 242 247 252 256 260 261 262 263 265 267 268 270 271 271 272 273 274 277 279 280 283 286 289 292 294 295 296 297 297 297 297 299 301 302 303 303
238 239 237 239 239 238 240 242 242 244 249 257 260 261 260 262 265 269 271 269 268 270 270 270 271 274 276 277 279 282 285 287 289 290 291 292 294 295 295 295 297 297 298 298
242 241 241 241 239 242 240 243 244 246 247 251 256 257 259 261 264 267 269 271 271 271 270 271 272 272 273 275 277 280 283 284 285 287 288 289 291 291 292 293 293 294 295 295
240 242 242 241 242 247 243 241 244 246 247 249 252 255 260 264 267 268 268 269 271 270 269 270 271 272 272 272 275 277 280 282 284 286 288 289 290 289 290 291 291 292 293 293
240 241 241 240 239 243 246 246 246 248 251 252 253 255 259 262 268 270 270 270 270 271 271 270 270 270 271 272 275 278 279 282 282 283 284 285 288 288 290 291 289 289 291 291
242 242 241 240 241 242 243 246 246 246 248 251 253 256 258 260 264 269 270 271 271 270 270 270 268 269 271 273 274 276 278 279 280 281 282 282 286 288 289 288 288 288 288 288
243 244 242 240 240 241 244 242 245 249 250 252 255 258 260 262 265 268 269 270 270 271 271 271 269 269 271 273 274 275 276 278 278 280 281 282 283 286 286 286 285 286 287 287
239 241 241 240 242 243 245 247 248 250 253 253 256 259 262 265 266 268 269 270 270 271 272 271 270 269 270 271 273 274 276 276 277 279 280 281 282 284 285 285 283 284 285 286
238 237 238 240 243 243 245 247 248 249 253 255 258 261 265 265 266 268 269 270 271 271 271 271 271 272 272 271 271 272 274 276 276 278 278 279 281 282 283 284 285 285 286 285
237 240 238 239 242 242 243 247 249 249 253 255 258 262 265 266 266 267 268 269 271 272 272 271 271 272 273 272 271 272 274 275 275 277 278 279 281 283 283 284 284 285 285 285
237 238 238 238 242 245 243 246 250 252 255 257 260 262 265 265 266 267 268 269 270 272 271 270 271 272 271 271 272 273 274 275 275 276 278 280 282 283 283 283 283 283 286 285
Height
5914 5917 5918 5920 5922 5923 5924 5925 5926 5926 5925 5925 5924 5923 5921 5919 5918 5917 5916 5915 5914 5913 5912 5911 5910 5909 5909 5909 5908 5908 5907 5907 5906 5905 5905 5905 5904 5903 5903 5902 5901 5900 5900 5899
5914 5916 5918 5919 5921 5922 5924 5925 5926 5926 5925 5924 5923 5923 5921 5920 5918 5917 5916 5915 5914 5913 5912 5912 5911 5910 5910 5909 5909 5908 5908 5907 5907 5906 5906 5905 5904 5904 5903 5903 5902 5901 5900 5900
5912 5916 5917 5919 5920 5922 5923 5924 5924 5924 5924 5923 5922 5921 5922 5920 5919 5917 5916 5915 5914 5914 5913 5912 5911 5911 5910 5910 5909 5909 5908 5908 5907 5906 5906 5905 5905 5904 5904 5903 5902 5901 5901 5900
5911 5914 5915 5917 5919 5920 5922 5922 5922 5922 5923 5923 5923 5922 5921 5919 5918 5917 5916 5915 5914 5914 5913 5912 5911 5911 5910 5910 5909 5909 5908 5907 5907 5906 5906 5905 5905 5904 5903 5903 5902 5901 5900 5900
5908 5911 5912 5915 5917 5918 5919 5920 5920 5921 5921 5921 5923 5923 5921 5919 5918 5917 5916 5915 5914 5913 5912 5912 5912 5911 5910 5910 5909 5908 5908 5907 5907 5906 5905 5905 5904 5904 5903 5902 5901 5901 5900 5899
5905 5907 5910 5912 5914 5916 5917 5918 5918 5918 5919 5920 5921 5922 5921 5919 5917 5916 5914 5914 5913 5913 5912 5911 5911 5911 5910 5910 5909 5908 5907 5907 5906 5906 5905 5904 5904 5903 5902 5901 5901 5900 5899 5898
5903 5904 5907 5908 5910 5913 5915 5916 5916 5916 5916 5918 5920 5919 5919 5917 5916 5915 5914 5912 5911 5912 5911 5911 5910 5910 5909 5909 5908 5907 5907 5906 5905 5905 5904 5903 5903 5902 5901 5900 5899 5899 5898 5897
5901 5903 5905 5905 5906 5909 5911 5913 5914 5914 5916 5916 5917 5917 5917 5915 5915 5914 5913 5911 5911 5911 5911 5909 5909 5909 5908 5908 5907 5907 5906 5905 5904 5904 5903 5902 5901 5901 5900 5899 5898 5897 5896 5895
5898 5900 5902 5902 5904 5906 5908 5908 5911 5912 5911 5912 5913 5914 5914 5914 5913 5912 5910 5910 5909 5909 5909 5909 5908 5908 5907 5907 5906 5905 5905 5904 5903 5903 5902 5901 5900 5899 5898 5897 5896 5895 5894 5893
5892 5895 5898 5899 5899 5901 5904 5906 5908 5908 5908 5908 5910 5911 5911 5910 5909 5909 5908 5907 5907 5907 5908 5907 5906 5906 5906 5905 5905 5904 5903 5903 5902 5901 5900 5899 5898 5897 5896 5895 5894 5893 5892 5890
5886 5890 5893 5895 5896 5898 5900 5902 5904 5905 5906 5906 5907 5910 5908 5907 5906 5905 5905 5905 5905 5906 5905 5905 5904 5904 5904 5903 5903 5902 5901 5900 5899 5899 5898 5897 5896 5895 5894 5893 5891 5890 5889 5888
5882 5885 5887 5890 5893 5895 5897 5898 5900 5902 5902 5902 5903 5906 5903 5903 5902 5901 5901 5901 5902 5902 5902 5902 5902 5902 5901 5901 5900 5900 5899 5898 5897 5896 5895 5894 5893 5892 5891 5890 5888 5887 5886 5884
5877 5880 5883 5886 5890 5891 5892 5894 5895 5898 5899 5898 5900 5902 5899 5899 5899 5899 5898 5898 5898 5899 5899 5900 5899 5899 5899 5898 5898 5897 5896 5895 5894 5893 5892 5891 5890 5889 5888 5886 5885 5884 5882 5881
5871 5874 5878 5881 5884 5887 5887 5889 5891 5893 5895 5895 5896 5896 5896 5896 5895 5894 5895 5895 5895 5895 5895 5895 5895 5895 5895 5895 5894 5893 5892 5892 5891 5890 5888 5887 5886 5885 5884 5883 5881 5880 5878 5877
5865 5868 5871 5873 5877 5880 5883 5884 5886 5888 5889 5891 5891 5891 5891 5891 5891 5890 5890 5890 5890 5891 5891 5891 5891 5891 5891 5891 5890 5889 5888 5887 5887 5886 5884 5883 5882 5881 5880 5879 5877 5876 5874 5873
5858 5862 5864 5867 5871 5874 5877 5879 5881 5883 5884 5885 5885 5884 5886 5885 5885 5884 5884 5885 5885 5886 5886 5886 5886 5886 5886 5886 5885 5885 5884 5883 5882 5881 5880 5879 5878 5877 5875 5874 5873 5871 5870 5868
5852 5855 5858 5861 5864 5867 5870 5873 5875 5877 5879 5880 5880 5880 5879 5879 5879 5879 5878 5879 5880 5880 5880 5880 5880 5880 5880 5880 5880 5879 5878 5877 5877 5876 5875 5874 5873 5872 5870 5869 5868 5866 5864 5862
5846 5848 5851 5854 5857 5859 5865 5868 5869 5870 5872 5873 5873 5873 5872 5873 5873 5873 5873 5873 5874 5874 5874 5874 5873 5874 5874 5874 5873 5873 5872 5871 5871 5870 5869 5868 5867 5866 5864 5863 5861 5860 5858 5856
5839 5841 5844 5848 5850 5853 5858 5860 5862 5864 5865 5866 5866 5867 5866 5866 5866 5866 5866 5867 5867 5867 5867 5867 5867 5867 5867 5867 5867 5866 5866 5865 5864 5863 5862 5861 5860 5859 5858 5856 5855 5853 5852 5850
5831 5834 5837 5840 5843 5847 5850 5852 5854 5857 5858 5858 5858 5859 5859 5860 5859 5860 5859 5860 5860 5860 5860 5860 5860 5860 5860 5860 5860 5859 5859 5858 5858 5857 5856 5854 5853 5852 5851 5850 5848 5846 5845 5843
5824 5826 5829 5832 5835 5839 5842 5844 5847 5850 5849 5849 5850 5851 5852 5853 5853 5853 5853 5853 5853 5853 5853 5853 5852 5852 5852 5852 5852 5852 5852 5851 5850 5849 5848 5847 5846 5845 5844 5842 5841 5839 5838 5836
5816 5819 5821 5825 5828 5833 5832 5835 5838 5839 5840 5841 5843 5843 5844 5845 5846 5845 5845 5845 5845 5845 5845 5844 5844 5844 5844 5844 5844 5844 5844 5843 5842 5841 5841 5840 5839 5838 5836 5834 5833 5831 5830 5829
5808 5812 5815 5818 5821 5822 5824 5827 5829 5830 5831 5833 5835 5835 5836 5837 5838 5838 5838 5838 5837 5837 5837 5837 5836 5836 5836 5836 5836 5836 5835 5835 5834 5833 5832 5832 5831 5829 5828 5826 5825 5823 5822 5821
5799 5802 5805 5808 5810 5813 5815 5817 5819 5821 5823 5824 5826 5827 5828 5828 5829 5829 5829 5829 5829 5829 5829 5829 5828 5828 5828 5828 5827 5827 5827 5826 5826 5825 5824 5823 5822 5821 5820 5819 5817 5816 5815 5813
5789 5792 5795 5798 5801 5802 5806 5808 5810 5812 5814 5815 5817 5818 5819 5819 5820 5821 5821 5821 5821 5821 5821 5821 5820 5820 5820 5819 5819 5819 5818 5818 5817 5816 5815 5814 5813 5812 5811 5810 5809 5808 5806 5805
5781 5784 5786 5788 5791 5792 5796 5799 5801 5803 5805 5807 5808 5809 5810 5810 5811 5812 5812 5812 5812 5812 5812 5812 5812 5812 5811 5811 5810 5810 5809 5809 5808 5807 5806 5805 5804 5803 5802 5801 5800 5799 5798 5796